Meridian, MS

11:34 PM CST on December 15, 2019 (GMT -0600)
Key

Weather History for KMEI - October, 2019

Change the Weather History Date:

Thursday, October 3, 2019

  Actual Average Record
Temperature  
Mean Temperature 88 °F 69 °F  
Max Temperature 102 °F 81 °F 94 °F (1954)
Min Temperature 73 °F 56 °F 36 °F (1984)
Degree Days  
Heating Degree Days 0 1  
Month to date heating degree days 0 3  
Since 1 July heating degree days 0 10  
Cooling Degree Days 22 5  
Month to date cooling degree days 65 16  
Year to date cooling degree days 2697 1939  
Growing Degree Days 38 (Base 50)    
Moisture  
Dew Point 70 °F    
Average Humidity 64    
Maximum Humidity 87    
Minimum Humidity 32    
Precipitation  
Precipitation T in 0.11 in 3.64 in (1995)
Month to date precipitation T 0.34  
Year to date precipitation 43.18 42.73  
Sea Level Pressure  
Sea Level Pressure 30.00 in    
Wind  
Wind Speed 3 mph ()    
Max Wind Speed 15 mph    
Max Gust Speed 20 mph    
Visibility 10.0 miles    
Events Rain , Thunderstorm    
T = Trace of Precipitation, MM = Missing Value Source: Averaged Metar Reports

Daily Weather History Graph

Daily Weather History Graph

Search for Another Location

Airport or City:

Astronomy

Oct. 03, 2019 Rise Set
Actual Time 6:50 AM CDT 6:37 PM CDT
Civil Twilight 6:25 AM CDT 7:01 PM CDT
Nautical Twilight 5:57 AM CDT 7:30 PM CDT
Astronomical Twilight 5:28 AM CDT 7:58 PM CDT
Moon 12:04 PM CDT (10/3) 10:33 PM CDT (10/3)
Length of Visible Light 12h 36m
Length of Day
11h 47m
Waxing Crescent, 30% of the Moon is Illuminated
Oct 3
Waxing Crescent
Oct 5
First Quarter
Oct 13
Full
Oct 21
Last Quarter
Oct 27
New

Hourly Weather History & Observations

Time (CDT) Temp. Heat Index Dew Point Humidity Pressure Visibility Wind Dir Wind Speed Gust Speed Precip Events Conditions
12:58 AM 75.9 °F - 70.0 °F 82% 29.97 in 10.0 mi SW 4.6 mph - N/A   Scattered Clouds
1:58 AM 77.0 °F - 72.0 °F 84% 29.99 in 10.0 mi SSW 3.5 mph - N/A   Mostly Cloudy
2:58 AM 77.0 °F - 70.0 °F 79% 29.99 in 10.0 mi South 3.5 mph - N/A   Scattered Clouds
3:58 AM 75.9 °F - 70.0 °F 82% 29.99 in 10.0 mi SSW 4.6 mph - N/A   Mostly Cloudy
4:58 AM 77.0 °F - 71.1 °F 82% 30.00 in 10.0 mi Calm Calm - N/A   Partly Cloudy
5:58 AM 75.0 °F - 70.0 °F 84% 30.01 in 10.0 mi Calm Calm - N/A   Clear
6:58 AM 73.9 °F - 70.0 °F 87% 30.02 in 9.0 mi Calm Calm - N/A   Mostly Cloudy
7:58 AM 78.1 °F - 72.0 °F 81% 30.03 in 10.0 mi Calm Calm - N/A   Clear
8:58 AM 84.9 °F 90.7 °F 72.0 °F 65% 30.04 in 10.0 mi Calm Calm - N/A   Clear
9:58 AM 87.1 °F 93.6 °F 72.0 °F 61% 30.04 in 10.0 mi Calm Calm - N/A   Clear
10:58 AM 95.0 °F 101.3 °F 70.0 °F 44% 30.03 in 10.0 mi WSW 3.5 mph - N/A   Mostly Cloudy
11:58 AM 97.0 °F 102.2 °F 68.0 °F 39% 30.02 in 10.0 mi Variable 3.5 mph - N/A   Clear
12:58 PM 99.0 °F 104.2 °F 68.0 °F 36% 30.00 in 10.0 mi NNW 5.8 mph - N/A   Clear
1:58 PM 98.1 °F 102.4 °F 66.9 °F 36% 29.97 in 10.0 mi Variable 3.5 mph - N/A   Partly Cloudy
2:58 PM 98.1 °F 101.8 °F 66.0 °F 35% 29.96 in 10.0 mi Calm Calm - N/A   Scattered Clouds
3:58 PM 100.9 °F 105.3 °F 66.0 °F 32% 29.94 in 10.0 mi ENE 4.6 mph - N/A   Scattered Clouds
4:58 PM 98.1 °F 101.8 °F 66.0 °F 35% 29.94 in 10.0 mi SE 4.6 mph - N/A   Partly Cloudy
5:58 PM 84.9 °F 89.4 °F 70.0 °F 61% 29.96 in 10.0 mi Variable 4.6 mph - N/A   Partly Cloudy
6:58 PM 82.0 °F 86.7 °F 72.0 °F 71% 29.96 in 10.0 mi South 4.6 mph - N/A   Mostly Cloudy
7:58 PM 82.9 °F 87.0 °F 70.0 °F 65% 29.99 in 10.0 mi South 3.5 mph - N/A   Scattered Clouds
8:58 PM 80.1 °F 82.7 °F 68.0 °F 67% 30.00 in 10.0 mi Calm Calm - N/A   Clear
9:58 PM 79.0 °F - 69.1 °F 72% 30.01 in 10.0 mi South 3.5 mph - N/A   Scattered Clouds
10:58 PM 78.1 °F - 70.0 °F 76% 30.02 in 10.0 mi SE 3.5 mph - N/A   Overcast
11:11 PM 80.1 °F 83.2 °F 70.0 °F 71% 30.06 in 10.0 mi SE 10.4 mph 19.6 mph N/A Thunderstorm Overcast
11:50 PM 80.1 °F 83.2 °F 70.0 °F 71% 30.05 in 10.0 mi SSW 5.8 mph - N/A   Overcast
11:58 PM 80.1 °F 83.2 °F 70.0 °F 71% 30.03 in 10.0 mi SSW 8.1 mph - 0.00 in Rain Light Rain